Regional Weather Roundup
Issued by NWS Wilmington, NC

Home | Current Version | Previous Version | Text Only | Print | Product List | Glossary On
Versions: 1 2 3 4 5 6 7 8 9 10 11 12 13 14 15 16 17 18 19 20 21 22 23 24 25 26 27 28 29 30 31 32 33 34 35 36 37 38 39 40 41 42 43 44 45 46 47 48 49
000
ASUS42 KILM 021210
RWRILM
RWRILM
REGIONAL HOURLY WEATHER ROUNDUP
NATIONAL WEATHER SERVICE WILMINGTON NC
700 AM EST MON MAR 02 2015

NOTE: "FAIR" INDICATES FEW OR NO CLOUDS BELOW 12,000 FEET WITH NO
SIGNIFICANT WEATHER AND/OR OBSTRUCTIONS TO VISIBILITY.

...............WFO WILMINGTON COUNTY WARNING AREA...............

......COASTAL NC AND SC COUNTIES......

CITY           SKY/WX    TMP DP  RH WIND       PRES   REMARKS
WILMINGTON     CLOUDY    45  44  97 SW9       30.23R FOG
SOUTHPORT      FOG       45  45  99 W10       30.25S VSB 3/4
N MYRTLE BEACH CLOUDY    45  44  97 SW6       30.24F FOG
MYRTLE BEACH   FOG       45  43  93 SW6       30.27S VSB 1/2

......INLAND NC AND SC COUNTIES.......

CITY           SKY/WX    TMP DP  RH WIND       PRES   REMARKS
LUMBERTON      FOG       42  41  96 SW7       30.23F VSB 1/2
ELIZABETHTOWN  CLOUDY    41  41 100 W5        30.23F FOG
WHITEVILLE     CLOUDY    43  42  97 SW3       30.23S FOG
FLORENCE       FOG       44  43  96 W7        30.25F VSB 1/4
DARLINGTON     CLOUDY    45  39  81 SW7       30.26S VSB 1/2

....................REST OF NORTH CAROLINA......................

.........EASTERN NC.........

CITY           SKY/WX    TMP DP  RH WIND       PRES   REMARKS
CAPE HATTERAS  FOG       41  41 100 W5        30.19S VSB 1/4
JACKSONVILLE   CLOUDY    43  39  87 SW7       30.22S
MOREHEAD CITY  FOG       45  45 100 SW6       30.21S VSB 1/4
KENANSVILLE    CLOUDY    41  41 100 SW7       30.22S FOG
NEW BERN       CLOUDY    44  43  96 W3        30.21S FOG
ELIZABETH CITY FOG       38  37  97 SW9       30.16F VSB 1/2 WCI  31

.........CENTRAL NC.........

CITY           SKY/WX    TMP DP  RH WIND       PRES   REMARKS
RALEIGH DURHAM FOG       37  35  92 SW6       30.19F VSB 1/8 WCI  32
ROCKY MOUNT    FOG       40  39  97 SW5       30.19S VSB 1/2
ROANOKE RAPIDS NOT AVBL
FAYETTEVILLE   CLOUDY    41  40  96 SW8       30.22S FOG
HOFFMAN        FOG       40  40 100 SW6       30.26S VSB 5/16

.........WESTERN NC.........

CITY           SKY/WX    TMP DP  RH WIND       PRES   REMARKS
CHARLOTTE      DRZL/FOG  42  40  92 CALM      30.21S VSB 1/2
GREENSBORO     FOG       37  37 100 W6        30.16F VSB 1/4 WCI  32
HICKORY        NOT AVBL
BOONE          NOT AVBL
ASHEVILLE      NOT AVBL

.....................REST OF SOUTH CAROLINA.....................

.........EASTERN SC.........

CITY           SKY/WX    TMP DP  RH WIND       PRES   REMARKS
CHARLESTON     FOG       45  45 100 S5        30.28F VSB 1/8
BEAUFORT MCAS  FOG       47  47 100 S6        30.29F VSB 3/4
HILTON HEAD    CLOUDY    48  48 100 W5        30.33  FOG

.........CENTRAL SC.........

CITY           SKY/WX    TMP DP  RH WIND       PRES   REMARKS
COLUMBIA       FOG       47  46  97 SW5       30.25S VSB 1/4
ORANGEBURG     FOG       46  44  93 SW6       30.27F VSB 1/4
SUMTER SHAW    FOG       45  45 100 SW5       30.24S VSB 1/4

.........WESTERN SC.........

CITY           SKY/WX    TMP DP  RH WIND       PRES   REMARKS
GREENVILLE     NOT AVBL
ROCK HILL      FOG       43  43 100 SW7       30.21F VSB 1/4
ANDERSON       FOG       46  46 100 SW8       30.23S VSB 3/4
CLEMSON        NOT AVBL
GREENWOOD      FOG       44  43  96 SW10      30.25F VSB 1


...................COASTAL AND OFFSHORE REPORTS..................

................LOCAL PIERS AND NC RESERVE................


STATION/POSITION TIME  SKY/WX   TEMP    WIND        PRES    VSBY
                                AIR SEA DIR/SP/G
                 (UTC)          (F)     (DEG/KT/KT) (MB)    (MI)
JOHNY MRCER PIER 1200            46 48  250/  9/ 11 1023.2S
NC RESRV MASNBRO 1100            46     250/  2     1023.0S
OCEAN CREST PIER 1200            45 46  230/ 15/ 16 1023.4R
SPRINGMAID  PIER 1200            44 44  210/  5/  6 1024.4F


................COASTAL AND OFFSHORE BUOYS................


STATION/POSITION TIME  SKY/WX   TEMP    WIND        PRES    VSBY
                                AIR SEA DIR/SP/G
                 (UTC)          (F)     (DEG/KT/KT) (MB)    (MI)
DIMNDSHOAL 41025 NOT AVBL
CAPE LOOKOUT     1100            45     250/  9/ 12 1023.0S
ONSLOW BAY 41036 NOT AVBL
5 WRITEBCH 41038 NOT AVBL
MASONBORO  41110 1200               46                N/A
WVE H/P(F/S)=  3/ 9 WND WVE H/P(F/S)=  3/ 9

WILM HARBR 41108 1200               46                N/A
WVE H/P(F/S)=  3/ 7 WND WVE H/P(F/S)=  3/ 7

27WRITEBCH 41037 NOT AVBL
FRYING PAN 41013 1200            57 62  260/ 12/ 14 1024.5R
WVE H/P(F/S)=  4/ 8 WND WVE H/P(F/S)=  2/ 5 SWL H/P/D(F/S/D)=  3/120/ 8

SUNST NRSH 41024 1100            44     270/ 10/ 12   N/A
CAPRS NRSH 41029 NOT AVBL
EDISTO     41004 1200            60 68  260/ 12/ 14 1024.7R
WVE H/P(F/S)=  4/ 8 WND WVE H/P(F/S)=  2/ 5 SWL H/P/D(F/S/D)=  3/ 8



..........OFFSHORE BUOYS BEYOND 100 NM OFFSHORE...........
.....IN A TRIANGLE---HAT TO BERMUDA TO BAHAMAS TO HAT.....


STATION/POSITION TIME  SKY/WX   TEMP    WIND        PRES    VSBY
                                AIR SEA DIR/SP/G
                 (UTC)          (F)     (DEG/KT/KT) (MB)    (MI)
150E HAT   41001 NOT AVBL
W BERMUDA  41048 1135            68 68  170/ 10/ 14 1025.6R
WVE H/P(F/S)=  5/ 8 WND WVE H/P(F/S)=  2/ 5 SWL H/P/D(F/S/D)=  5/ 90/ 8

ATLANTIC S 41049 1116            73 74   90/  8/ 12 1024.4R
WVE H/P(F/S)=  7/ 9 WND WVE H/P(F/S)=  2/ 4 SWL H/P/D(F/S/D)=  7/ 60/ 9

E BAHAMAS  41046 1147            75 77   70/ 16/ 19 1022.5R
WVE H/P(F/S)=  8/10 WND WVE H/P(F/S)=  3/ 6 SWL H/P/D(F/S/D)=  7/ 30/10

NE BAHAMAS 41047 1053            73 73  110/  6/  8 1025.7R
WVE H/P(F/S)=  6/ 9 WND WVE H/P(F/S)=  2/ 4 SWL H/P/D(F/S/D)=  7/ 70/ 9

120E CANVRL41010 1200            73 75  190/  6/  6 1026.0R
WVE H/P(F/S)=  6/ 9 WND WVE H/P(F/S)=  2/ 4 SWL H/P/D(F/S/D)=  5/ 80/ 9


END


USA.gov is the U.S. government's official web portal to all federal, state and local government web resources and services.